This demonstration page uses our WeatherBlox Daily Observations layout. Learn more.

Left ArrowRight Arrow

41.12389, -100.76542

Hourly Observations for March 18, 2018

Temp ( °F °C ) Dew Point ( °F °C ) Humidity (%) Winds ( mph kmh ) Pressure ( in mb ) Visibility ( mi km ) Precip ( " mm )
12:53 am 00:53 Clear 30 -1.1 28 -2.2 92 92 ESE 9 15 29.98 1015 7 11 0.00 0.00
1:53 am 01:53 Clear 29 -1.7 27 -2.8 92 92 E 8 13 29.98 1015 7 11 0.00 0.00
2:53 am 02:53 Clear 30 -1.1 27 -2.8 88 88 E 7 11 30.00 1016 10 16 0.00 0.00
3:53 am 03:53 Clear 30 -1.1 27 -2.8 88 88 ESE 10 17 29.95 1014 10 16 0.00 0.00
4:53 am 04:53 Clear 28 -2.2 25 -3.9 88 88 E 8 13 29.93 1013 8 13 0.00 0.00
5:53 am 05:53 Mostly Clear with Mist and Fog 28 -2.2 25 -3.9 88 88 ESE 9 15 29.91 1013 6 10 0.00 0.00
6:50 am 06:50 Mostly Cloudy with Mist and Fog 27 -3 25 -4 93 93 E 6 9 30.00 1016 5 8 0.00 0.00
6:53 am 06:53 Mostly Cloudy with Mist and Fog 27 -2.8 25 -3.9 92 92 ESE 6 9 29.93 1014 5 8 0.00 0.00
7:53 am 07:53 Cloudy with Mist and Fog 29 -1.7 27 -2.8 92 92 E 8 13 29.92 1013 4 6 0.00 0.00
8:11 am 08:11 Cloudy with Mist and Fog 30 -1.1 27 -2.8 88 88 E 10 17 30.00 1016 3 4 0.00 0.00
8:53 am 08:53 Cloudy with Mist and Fog 31 -0.6 29 -1.7 92 92 ESE 10 17 29.93 1014 2 3 0.00 0.00
9:06 am 09:06 Cloudy with Mist and Fog 31 -0.6 29 -1.7 92 92 ESE 12 19 29.97 1015 2 3 0.00 0.00
9:33 am 09:33 Cloudy with Mist and Fog 32 0 31 -0.6 96 96 ESE 10 17 29.94 1014 3 4 0.00 0.00
9:46 am 09:46 Cloudy with Mist and Fog 33 0.6 31 -0.6 92 92 ESE 12 19 29.94 1014 3 5 0.00 0.00
9:53 am 09:53 Cloudy with Mist and Fog 33 0.6 31 -0.6 92 92 E 10 17 29.91 1013 3 4 0.00 0.00
10:23 am 10:23 Cloudy with Mist and Fog 34 1.1 32 0 92 92 ESE 8 13 29.94 1014 3 5 0.00 0.00
10:53 am 10:53 Cloudy with Mist and Fog 37 2.8 34 1.1 89 89 ESE 15 24 29.90 1013 6 10 0.00 0.00
11:42 am 11:42 Cloudy with Mist and Fog 38 3.3 34 1.1 86 86 ESE 15 24 29.91 1013 6 10 0.00 0.00
11:53 am 11:53 Cloudy 40 4.4 35 1.7 83 83 ESE 14 22 29.88 1012 7 11 0.00 0.00
12:53 pm 12:53 Cloudy 41 5 33 0.6 73 73 ESE 13 20 29.86 1011 8 13 0.00 0.00
1:19 pm 13:19 Cloudy 43 6.1 34 1.1 71 71 SE 12 19 29.85 1011 9 14 0.00 0.00
1:53 pm 13:53 Cloudy 44 6.7 35 1.7 71 71 ESE 16 26 29.82 1010 9 14 0.00 0.00
2:53 pm 14:53 Cloudy 43 6.1 34 1.1 71 71 ESE 17 28 29.79 1009 9 14 0.00 0.00
3:01 pm 15:01 Cloudy 43 6.1 34 1.1 71 71 ESE 17 28 29.77 1008 8 13 0.00 0.00
3:53 pm 15:53 Cloudy 41 5 34 1.1 76 76 E 17 28 29.78 1008 7 11 0.00 0.00
4:53 pm 16:53 Cloudy 41 5 34 1.1 76 76 E 18 30 29.77 1008 7 11 0.00 0.00
5:53 pm 17:53 Cloudy 40 4.4 34 1.1 79 79 E 18 30 29.78 1008 8 13 0.00 0.00
6:53 pm 18:53 Cloudy 39 3.9 33 0.6 79 79 E 13 20 29.79 1009 7 11 0.00 0.00
7:53 pm 19:53 Cloudy with Haze 38 3.3 33 0.6 83 83 E 13 20 29.82 1010 6 10 0.00 0.00
8:06 pm 20:06 Cloudy with Haze 38 3.3 33 0.6 83 83 E 15 24 29.85 1011 6 10 0.00 0.00
8:53 pm 20:53 Cloudy 37 2.8 33 0.6 86 86 ENE 12 19 29.82 1010 7 11 0.00 0.00
9:53 pm 21:53 Cloudy with Mist and Fog 38 3.3 34 1.1 86 86 ENE 12 19 29.83 1010 6 10 0.00 0.00
10:53 pm 22:53 Cloudy with Mist and Fog 37 2.8 34 1.1 89 89 E 14 22 29.82 1010 5 8 0.00 0.00
11:04 pm 23:04 Cloudy with Mist and Fog 37 2.8 34 1.1 89 89 ENE 13 20 29.85 1011 4 6 0.00 0.00
11:53 pm 23:53 Cloudy with Mist and Fog 37 2.8 34 1.1 89 89 ENE 9 15 29.83 1010 5 8 0.00 0.00

Powered by AerisWeather